{"data":{"norad_id":62825,"epoch":"2026-05-25T03:58:19.492032Z","epoch_age_seconds":56836,"freshness":"FRESH","line1":"1 62825U 25018V   26145.16550338  .00017142  00000+0  58945-3 0  9996","line2":"2 62825  53.1602 311.7792 0001317  86.3873 273.7278 15.30206684 74911","mean_motion":15.30206684,"eccentricity":0.0001317,"inclination_deg":53.1602,"raan_deg":311.7792,"arg_perigee_deg":86.3873,"mean_anomaly_deg":273.7278,"bstar":0.00058945,"rev_number":7491,"period_min":94.104934650776,"perigee_km":474.29252843358,"apogee_km":476.09769611195,"semimajor_km":6853.3321122728,"source":"CELESTRAK","updated_at":"2026-05-25T13:38:19.776885Z"}}